C4984 Weather Reports


Display with metric or nautical units.
time (UTC)temp
F
wind
direction
speed
MPH
gust
MPH
rain 1hr
in
rain 24hr
in
rain mn
in
humidity
%
barometer
mb
20260510011606 65 27 0.0 1.0 0.00 0.00 0.00 88 1005.9
20260510010613 65 27 0.0 1.0 0.00 0.00 0.00 87 1005.8
20260510005602 66 198 0.0 0.0 0.00 0.00 0.00 85 1005.9
20260510003440 67 198 0.0 1.0 0.00 0.00 0.00 83 1005.8
20260510002417 68 214 0.0 0.0 0.00 0.00 0.00 81 1005.7
20260510001412 69 139 0.0 0.0 0.00 0.00 0.00 79 1005.6
20260510000353 69 101 0.0 0.0 0.00 0.00 0.00 78 1005.6
20260509235409 70 101 0.0 0.0 0.00 0.00 0.00 77 1005.1
20260509234346 70 151 0.0 0.0 0.00 0.00 0.00 76 1005.2
20260509233312 71 155 0.0 0.0 0.00 0.00 0.00 75 1005.2
20260509232244 71 143 0.0 3.0 0.00 0.00 0.00 75 1005.0
20260509231231 71 136 0.0 2.0 0.00 0.00 0.00 74 1004.8
20260509225111 72 137 0.0 5.0 0.00 0.00 0.00 73 1004.8
20260509224109 73 117 1.0 5.0 0.00 0.00 0.00 71 1005.0
20260509221933 73 117 1.0 6.0 0.00 0.00 0.00 72 1005.0
20260509220900 73 95 1.0 6.0 0.00 0.00 0.00 72 1005.0
20260509215908 73 172 0.0 5.0 0.00 0.00 0.00 71 1004.9
20260509214919 73 281 1.0 5.0 0.00 0.00 0.00 70 1004.9
20260509213853 75 146 1.0 5.0 0.00 0.00 0.00 68 1004.5
20260509212852 74 143 1.0 5.0 0.00 0.00 0.00 68 1004.4
20260509211857 74 337 1.0 4.0 0.00 0.00 0.00 69 1004.4
20260509205815 73 71 1.0 8.0 0.00 0.00 0.00 70 1004.6
20260509204752 73 14 1.0 8.0 0.00 0.00 0.00 68 1004.6
20260509203813 74 65 1.0 6.0 0.00 0.00 0.00 67 1004.5
20260509202807 75 8 1.0 7.0 0.00 0.00 0.00 67 1004.6
20260509201804 73 152 1.0 7.0 0.00 0.00 0.00 69 1004.6
20260509195630 72 146 1.0 8.0 0.00 0.00 0.00 67 1004.9
20260509194652 72 129 1.0 8.0 0.00 0.00 0.00 65 1004.9
20260509193631 73 148 1.0 8.0 0.00 0.00 0.00 63 1005.1
20260509192655 73 74 2.0 8.0 0.00 0.00 0.00 63 1005.1
20260509191706 73 94 2.0 9.0 0.00 0.00 0.00 63 1005.1
20260509190644 73 84 1.0 10.0 0.00 0.00 0.00 62 1005.1
20260509185618 74 183 2.0 10.0 0.00 0.00 0.00 61 1005.0
20260509184554 74 90 2.0 10.0 0.00 0.00 0.00 60 1005.0
20260509183555 75 22 2.0 10.0 0.00 0.00 0.00 59 1005.0
20260509181345 74 113 2.0 10.0 0.00 0.00 0.00 58 1005.6
20260509180409 74 10 2.0 10.0 0.00 0.00 0.00 61 1005.6
20260509175336 74 245 1.0 6.0 0.00 0.00 0.00 64 1005.6
20260509174304 73 129 2.0 6.0 0.00 0.00 0.00 61 1006.0
20260509173243 73 152 2.0 8.0 0.00 0.00 0.00 62 1006.0
20260509172300 73 167 1.0 9.0 0.00 0.00 0.00 65 1006.1
20260509171323 73 194 1.0 9.0 0.00 0.00 0.00 66 1006.5
20260509170306 72 64 2.0 8.0 0.00 0.00 0.00 65 1006.5
20260509165248 72 298 2.0 9.0 0.00 0.00 0.00 64 1006.3
20260509164253 72 52 2.0 9.0 0.00 0.00 0.00 66 1006.2
20260509163225 72 116 2.0 10.0 0.00 0.00 0.00 66 1006.2
20260509162224 72 90 2.0 10.0 0.00 0.00 0.00 67 1006.5
20260509161247 72 114 2.0 9.0 0.00 0.00 0.00 65 1006.5
20260509160307 72 121 1.0 9.0 0.00 0.00 0.00 64 1006.5
20260509153047 71 101 1.0 11.0 0.00 0.00 0.00 68 1006.1
20260509152055 70 65 2.0 10.0 0.00 0.00 0.00 66 1006.7
20260509151043 70 93 1.0 7.0 0.00 0.00 0.00 65 1007.2
20260509150040 69 132 1.0 5.0 0.00 0.00 0.00 67 1007.2
20260509145008 69 47 1.0 6.0 0.00 0.00 0.00 69 1007.2
20260509141736 68 94 0.0 5.0 0.00 0.00 0.00 71 1007.8
20260509135628 67 212 0.0 3.0 0.00 0.00 0.00 74 1008.1
20260509134630 66 59 1.0 5.0 0.00 0.00 0.00 78 1008.1
20260509133647 64 108 0.0 5.0 0.00 0.00 0.00 81 1008.3
20260509132708 63 127 0.0 5.0 0.00 0.00 0.00 83 1008.2
20260509131712 63 66 0.0 3.0 0.00 0.00 0.00 84 1008.2
20260509130707 62 53 0.0 3.0 0.00 0.00 0.00 85 1008.5
20260509125635 61 240 1.0 5.0 0.00 0.00 0.00 85 1008.1
20260509124657 60 304 0.0 5.0 0.00 0.00 0.00 88 1008.1
20260509122527 58 101 0.0 2.0 0.00 0.00 0.00 92 1008.2
20260509121527 58 179 0.0 5.0 0.00 0.00 0.00 94 1008.2
20260509120549 56 178 0.0 5.0 0.00 0.00 0.00 95 1008.4
20260509114358 55 28 0.0 3.0 0.00 0.00 0.00 97 1008.2
20260509113329 54 132 0.0 2.0 0.00 0.00 0.00 97 1008.2
20260509112341 54 122 0.0 3.0 0.00 0.00 0.00 97 1008.1
20260509111346 53 80 0.0 2.0 0.00 0.00 0.00 97 1007.8
20260509110331 52 347 0.0 0.0 0.00 0.00 0.00 97 1007.8
20260509105323 52 347 0.0 0.0 0.00 0.00 0.00 96 1007.5
20260509104327 52 305 0.0 0.0 0.00 0.00 0.00 96 1007.6
20260509103259 52 311 0.0 0.0 0.00 0.00 0.00 96 1007.6
20260509102306 52 311 0.0 0.0 0.00 0.00 0.00 95 1007.5
20260509101243 52 311 0.0 0.0 0.00 0.00 0.00 95 1007.5
20260509100248 52 311 0.0 0.0 0.00 0.00 0.00 95 1007.5
20260509095243 52 311 0.0 0.0 0.00 0.00 0.00 95 1007.7
20260509094232 53 311 0.0 0.0 0.00 0.00 0.00 95 1007.8
20260509093247 53 311 0.0 0.0 0.00 0.00 0.00 95 1007.8
20260509092305 53 311 0.0 0.0 0.00 0.00 0.00 95 1007.8
20260509091326 53 311 0.0 0.0 0.00 0.00 0.00 94 1007.8
20260509090252 53 311 0.0 0.0 0.00 0.00 0.00 94 1007.8
20260509085245 53 12 0.0 0.0 0.00 0.00 0.00 94 1007.9
20260509084300 53 122 0.0 0.0 0.00 0.00 0.00 93 1008.3
20260509083232 53 82 0.0 0.0 0.00 0.00 0.00 93 1008.3
20260509082230 53 82 0.0 0.0 0.00 0.00 0.00 92 1008.3
20260509081202 53 82 0.0 0.0 0.00 0.00 0.00 91 1008.3
20260509075052 54 82 0.0 0.0 0.00 0.00 0.00 90 1008.3
20260509072918 54 82 0.0 0.0 0.00 0.00 0.00 89 1008.3
20260509071854 55 82 0.0 0.0 0.00 0.00 0.00 88 1008.3
20260509070837 55 82 0.0 0.0 0.00 0.00 0.00 87 1008.3
20260509065841 55 57 0.0 1.0 0.00 0.00 0.00 87 1008.6
20260509063756 56 125 0.0 1.0 0.00 0.00 0.00 86 1008.8
20260509062727 56 125 0.0 2.0 0.00 0.00 0.00 86 1009.2
20260509061744 56 331 0.0 1.0 0.00 0.00 0.00 85 1009.2
20260509060757 56 19 0.0 0.0 0.00 0.00 0.00 85 1009.3
20260509055747 56 5 0.0 1.0 0.00 0.00 0.00 84 1009.4
20260509054729 56 1 0.0 0.0 0.00 0.00 0.00 83 1009.4
20260509053750 56 1 0.0 1.0 0.00 0.00 0.00 83 1009.5
20260509052717 57 30 0.0 0.0 0.00 0.00 0.00 82 1009.8
20260509051647 57 50 0.0 1.0 0.00 0.00 0.00 82 1009.8
20260509045559 57 37 0.0 0.0 0.00 0.00 0.00 80 1009.7
20260509044531 57 342 0.0 0.0 0.00 0.00 0.00 80 1009.7
20260509043549 58 316 0.0 2.0 0.00 0.00 0.00 79 1009.6
20260509042552 58 97 0.0 5.0 0.00 0.00 0.00 79 1009.6
20260509040431 57 328 0.0 1.0 0.00 0.00 0.00 78 1009.6
20260509035412 57 1 0.0 1.0 0.00 0.00 0.00 78 1009.8
20260509033310 56 15 0.0 0.0 0.00 0.00 0.00 80 1009.9
20260509032257 56 49 0.0 0.0 0.00 0.00 0.00 80 1009.8
20260509030125 56 49 0.0 0.0 0.00 0.00 0.00 78 1010.0
20260509023931 56 49 0.0 0.0 0.00 0.00 0.00 77 1010.4
20260509022925 57 49 0.0 0.0 0.00 0.00 0.00 76 1010.4
20260509021930 57 49 0.0 0.0 0.00 0.00 0.00 73 1010.2
20260509020924 57 49 0.0 0.0 0.00 0.00 0.00 72 1010.2
20260509015913 57 49 0.0 0.0 0.00 0.00 0.00 71 1010.3